EW5461 Weather Reports


Display with metric or nautical units.
time (UTC)temp
F
wind
direction
speed
MPH
gust
MPH
rain 1hr
in
rain 24hr
in
rain mn
in
humidity
%
barometer
mb
20260905091519 80 154 2.0 5.0 0.00 0.08 0.00 78 1011.4
20260905090018 80 171 1.0 4.0 0.00 0.08 0.00 77 1011.4
20260905084516 80 171 1.0 4.0 0.00 0.08 0.00 77 1011.2
20260905083014 81 183 0.0 5.0 0.00 0.08 0.00 76 1011.2
20260905081512 81 161 2.0 6.0 0.00 0.08 0.00 75 1011.1
20260905080011 82 172 3.0 11.0 0.00 0.08 0.00 74 1011.0
20260905074509 82 123 5.0 10.0 0.00 0.08 0.00 74 1011.1
20260905073007 82 171 3.0 8.0 0.00 0.08 0.00 73 1011.2
20260905071505 82 151 3.0 8.0 0.00 0.08 0.00 73 1011.3
20260905070007 83 194 2.0 7.0 0.00 0.08 0.00 71 1011.4
20260905064503 83 169 3.0 9.0 0.00 0.08 0.00 70 1011.5
20260905063102 84 215 2.0 6.0 0.00 0.08 0.00 70 1011.4
20260905061558 84 117 3.0 9.0 0.00 0.08 0.00 70 1011.5
20260905060054 84 150 2.0 6.0 0.00 0.08 0.00 69 1011.4
20260905054553 85 171 4.0 8.0 0.00 0.08 0.00 67 1011.4
20260905053049 85 142 4.0 9.0 0.00 0.08 0.00 66 1011.2
20260905051548 86 188 3.0 7.0 0.00 0.08 0.00 65 1011.2
20260905050052 86 175 2.0 6.0 0.00 0.08 0.00 64 1011.1
20260905044542 87 157 3.0 8.0 0.00 0.08 0.00 63 1011.0
20260905043039 87 167 4.0 9.0 0.00 0.08 0.00 61 1011.0
20260905041535 88 137 5.0 11.0 0.00 0.08 0.00 59 1011.0
20260905040035 89 174 4.0 11.0 0.00 0.08 0.00 58 1011.0
20260905034531 89 200 1.0 9.0 0.00 0.08 0.00 56 1010.9
20260905033028 90 76 1.0 8.0 0.00 0.08 0.00 55 1010.9
20260905031523 90 158 2.0 9.0 0.00 0.08 0.00 54 1010.9
20260905030022 90 100 2.0 10.0 0.00 0.08 0.00 54 1010.6
20260905024521 91 144 2.0 9.0 0.00 0.08 0.00 53 1010.5
20260905023018 91 121 1.0 8.0 0.00 0.08 0.00 53 1010.4
20260905021533 92 82 1.0 5.0 0.00 0.08 0.00 53 1010.1
20260905020018 92 167 1.0 6.0 0.00 0.08 0.00 52 1009.8
20260905014513 92 55 1.0 9.0 0.00 0.08 0.00 51 1009.6
20260905013013 93 111 1.0 7.0 0.00 0.08 0.00 51 1009.4
20260905011511 93 136 0.0 4.0 0.00 0.08 0.00 50 1009.3
20260905010007 95 151 2.0 8.0 0.00 0.08 0.00 47 1009.1
20260905004505 95 137 1.0 5.0 0.00 0.08 0.00 46 1008.8
20260905003007 96 114 2.0 9.0 0.00 0.08 0.00 45 1008.6
20260905001504 97 143 1.0 8.0 0.00 0.08 0.00 43 1008.6
20260905000003 98 177 2.0 8.0 0.00 0.08 0.00 42 1008.5
20260904234502 99 137 2.0 8.0 0.00 0.08 0.00 42 1008.4
20260904233001 99 61 1.0 9.0 0.00 0.08 0.00 42 1008.4
20260904231603 99 175 2.0 11.0 0.00 0.08 0.00 41 1008.5
20260904230100 98 92 5.0 14.0 0.00 0.08 0.00 42 1008.5
20260904224558 99 169 4.0 11.0 0.00 0.08 0.00 42 1008.5
20260904223057 99 140 2.0 8.0 0.00 0.08 0.00 42 1008.8
20260904221602 99 108 2.0 14.0 0.00 0.08 0.00 42 1008.8
20260904220106 100 360 1.0 9.0 0.00 0.08 0.00 43 1008.8
20260904214549 99 180 4.0 9.0 0.00 0.08 0.00 44 1008.9
20260904213048 100 76 2.0 8.0 0.00 0.08 0.00 44 1009.1
20260904211552 99 184 2.0 14.0 0.00 0.08 0.00 45 1009.3
20260904210045 98 217 2.0 8.0 0.00 0.08 0.00 46 1009.5
20260904204538 96 198 4.0 11.0 0.00 0.08 0.00 47 1009.7
20260904203036 98 159 2.0 6.0 0.00 0.08 0.00 45 1009.9
20260904201534 97 154 3.0 14.0 0.00 0.08 0.00 44 1010.2
20260904194507 96 123 3.0 12.0 0.00 0.08 0.00 49 1010.7